This is the latest recevied weather packets stored in our database for station/object KI4NG. If no packets are shown the sender has not sent any weather packets the latest 10 day(s).
| Time | Temp. | Humidity | Pressure | Rain* | Wind** | Luminosity | Snow |
|---|---|---|---|---|---|---|---|
| 1788190727 | 29.44° C | 70% | 1024 hPa | 0 mm | - | 686 W/m² | - |
| 1788190423 | 28.89° C | 72% | 1024 hPa | 0 mm | - | 691 W/m² | - |
| 1788190119 | 28.89° C | 72% | 1024.2 hPa | 0 mm | - | 687 W/m² | - |
| 1788189815 | 29.44° C | 71% | 1023.9 hPa | 0 mm | - | 691 W/m² | - |
| 1788189512 | 28.89° C | 73% | 1024.1 hPa | 0 mm | - | 670 W/m² | - |
| 1788189209 | 28.33° C | 73% | 1024.1 hPa | 0 mm | - | 673 W/m² | - |
| 1788188904 | 28.33° C | 75% | 1024 hPa | 0 mm | - | 643 W/m² | - |
| 1788188600 | 28.33° C | 74% | 1023.9 hPa | 0 mm | - | 632 W/m² | - |
| 1788188298 | 28.33° C | 74% | 1024 hPa | 0 mm | - | 635 W/m² | - |
| 1788187995 | 28.89° C | 74% | 1024.2 hPa | 0 mm | - | 629 W/m² | - |
| 1788187691 | 28.33° C | 75% | 1024.1 hPa | 0 mm | - | 612 W/m² | - |
| 1788187387 | 27.78° C | 76% | 1023.7 hPa | 0 mm | - | 599 W/m² | - |
| 1788187086 | 27.78° C | 77% | 1024 hPa | 0 mm | - | 586 W/m² | - |
| 1788186782 | 27.78° C | 77% | 1023.8 hPa | 0 mm | - | 559 W/m² | - |
| 1788186477 | 27.22° C | 79% | 1023.9 hPa | 0 mm | - | 540 W/m² | - |
| 1788186172 | 27.22° C | 79% | 1023.9 hPa | 0 mm | - | 516 W/m² | - |
| 1788185872 | 27.22° C | 78% | 1023.8 hPa | 0 mm | - | 492 W/m² | - |
| 1788185571 | 26.67° C | 80% | 1023.7 hPa | 0 mm | - | 433 W/m² | - |
| 1788185266 | 26.67° C | 81% | 1023.7 hPa | 0 mm | - | 385 W/m² | - |
| 1788184960 | 26.11° C | 81% | 1023.6 hPa | 0 mm | - | 385 W/m² | - |
| 1788184658 | 26.11° C | 82% | 1023.8 hPa | 0 mm | - | 85 W/m² | - |
| 1788184354 | 26.11° C | 82% | 1023.7 hPa | 0 mm | - | 324 W/m² | - |
| 1788184049 | 25.56° C | 83% | 1023.6 hPa | 0 mm | - | 311 W/m² | - |
| 1788183746 | 25.56° C | 85% | 1023.7 hPa | 0 mm | - | 312 W/m² | - |
| 1788183444 | 25° C | 88% | 1023.9 hPa | 0 mm | - | 97 W/m² | - |
* Rain latest hour (hover to see other rain measurements)
** Current wind speed in m/s (hover to see current wind gust speed)